Flight Track Log - Related Links

Times and Time Zones

All times are in EST time to prevent confusion due to time zone crossing. See the AAY894 flight status page for this flight to view local times or setup timezone preferences in your user account.

Time Position Orientation Groundspeed Altitude Reporting Facility
EST Latitude Longitude Course Direction KTS MPH feet Rate Location/Type
Sat 06:59:02 AM 28.3960 -82.6713 360° North 330 380 14,400  Level FlightAware ADS-B
Sat 06:59:53 AM 28.4803 -82.6713 North 338 389 16,500 2,346 Climbing FlightAware ADS-B
Sat 07:01:38 AM 28.6448 -82.6619 North 348 400 20,500 1,909 Climbing FlightAware ADS-B
Sat 07:05:01 AM 28.9890 -82.6420 North 374 430 26,300 1,509 Climbing FlightAware ADS-B
Sat 07:07:12 AM 29.2137 -82.6291 North 394 453 28,900 1,069 Climbing FlightAware ADS-B
Sat 07:09:36 AM 29.4825 -82.6133 North 406 467 31,200 956 Climbing FlightAware ADS-B
Sat 07:10:14 AM 29.5536 -82.6092 North 407 468 31,800 987 Climbing FlightAware ADS-B
Sat 07:10:55 AM 29.6306 -82.6046 North 406 467 32,500 1,014 Climbing FlightAware ADS-B
Sat 07:11:25 AM 29.6880 -82.6012 North 405 466 33,000 984 Climbing FlightAware ADS-B
Sat 07:11:56 AM 29.7449 -82.5979 North 405 466 33,500 984 Climbing FlightAware ADS-B
Sat 07:12:26 AM 29.8018 -82.5945 North 403 464 34,000 900 Climbing FlightAware ADS-B
Sat 07:12:56 AM 29.8582 -82.5911 North 403 464 34,400 590 Climbing FlightAware ADS-B
Sat 07:13:27 AM 29.9154 -82.5878 North 408 470 34,600 492 Climbing FlightAware ADS-B
Sat 07:13:57 AM 29.9721 -82.5846 North 411 473 34,900 600 Climbing FlightAware ADS-B
Sat 07:14:27 AM 30.0297 -82.5812 North 415 478 35,200 500 Climbing FlightAware ADS-B
Sat 07:14:57 AM 30.0857 -82.5778 North 417 480 35,400 689 Climbing FlightAware ADS-B
Sat 07:15:28 AM 30.1456 -82.5741 North 413 475 35,900 943 Climbing FlightAware ADS-B
Sat 07:16:07 AM 30.2219 -82.5695 North 410 472 36,500 857 Climbing FlightAware ADS-B
Sat 07:16:38 AM 30.2793 -82.5661 North 407 468 36,900 423 Climbing FlightAware ADS-B
Sat 07:17:18 AM 30.3540 -82.5617 North 409 471 37,000 50 Climbing FlightAware ADS-B
Sat 07:18:37 AM 30.5040 -82.5527 North 406 467 37,000  Level FlightAware ADS-B
Sat 07:20:58 AM 30.7683 -82.5414 North 405 466 37,000  Level FlightAware ADS-B
Sat 07:22:24 AM 30.9111 -82.5367 North 398 458 37,000  Level Jacksonville Center
Sat 07:23:24 AM 31.0219 -82.5339 North 398 458 37,000  Level Jacksonville Center
Sat 07:24:24 AM 31.1347 -82.5286 North 403 464 37,000  Level Jacksonville Center
Sat 07:25:24 AM 31.2472 -82.5256 North 403 464 37,000  Level Jacksonville Center
Sat 07:26:24 AM 31.3558 -82.5228 North 403 464 37,000  Level Jacksonville Center
Sat 07:27:24 AM 31.4644 -82.5103 North 398 458 37,000  Level Jacksonville Center
Sat 07:29:34 AM 31.7075 -82.4814 North 410 472 37,000  Level Atlanta Center
Sat 07:30:34 AM 31.8181 -82.4650 North 403 464 37,000  Level Atlanta Center
Sat 07:31:34 AM 31.9283 -82.4483 North 403 464 37,000  Level Atlanta Center
Sat 07:32:34 AM 32.0367 -82.4317 North 403 464 37,000  Level Atlanta Center
Sat 07:33:34 AM 32.1469 -82.4150 North 397 457 37,000  Level Atlanta Center
Sat 07:34:34 AM 32.2678 -82.3956 North 397 457 37,000  Level Atlanta Center
Sat 07:35:34 AM 32.3761 -82.3789 North 397 457 37,000  Level Atlanta Center
Sat 07:36:34 AM 32.4844 -82.3594 North 392 451 37,000  Level Atlanta Center
Sat 07:37:34 AM 32.5947 -82.3425 North 386 444 37,000  Level Atlanta Center
Sat 07:38:34 AM 32.7031 -82.3256 North 386 444 37,000  Level Atlanta Center
Sat 07:39:34 AM 32.8114 -82.3064 North 386 444 37,000  Level Atlanta Center
Sat 07:40:34 AM 32.9175 -82.2894 North 386 444 37,000  Level Atlanta Center
Sat 07:41:34 AM 33.0258 -82.2747 North 386 444 37,000  Level Atlanta Center
Sat 07:42:34 AM 33.1322 -82.2553 North 386 444 37,000  Level Atlanta Center
Sat 07:43:34 AM 33.2383 -82.2381 North 386 444 37,000  Level Atlanta Center
Sat 07:44:34 AM 33.3444 -82.2211 North 386 444 37,000  Level Atlanta Center
Sat 07:45:34 AM 33.4508 -82.2039 North 386 444 37,000  Level Atlanta Center
Sat 07:46:34 AM 33.5567 -82.1717 14° North 386 444 37,000  Level Atlanta Center
Sat 07:47:34 AM 33.6544 -82.1422 14° North 394 453 37,000  Level Atlanta Center
Sat 07:48:34 AM 33.7603 -82.1097 14° North 394 453 37,000  Level Atlanta Center
Sat 07:49:34 AM 33.8664 -82.0800 13° North 394 453 37,000  Level Atlanta Center
Sat 07:50:34 AM 33.9742 -82.0472 14° North 394 453 37,000  Level Atlanta Center
Sat 07:51:34 AM 34.0803 -82.0147 14° North 394 453 37,000  Level Atlanta Center
Sat 07:56:41 AM 34.6585 -81.8420 14° North 399 459 37,000  Level FlightAware ADS-B (KDZJ)
Sat 07:57:16 AM 34.7217 -81.8227 14° North 399 459 37,000  Level FlightAware ADS-B (KDZJ)
Sat 07:58:14 AM 34.8262 -81.7909 14° North 401 461 37,000  Level FlightAware ADS-B (KDZJ)
Sat 07:58:49 AM 34.8895 -81.7715 14° North 400 460 37,000  Level FlightAware ADS-B (KDZJ)
Sat 08:02:48 AM 35.3178 -81.6397 14° North 400 460 37,000  Level FlightAware ADS-B (KDZJ)
Sat 08:03:34 AM 35.3650 -81.6294 14° North 394 453 37,000  Level Atlanta Center
Sat 08:04:34 AM 35.4708 -81.5958 15° North 389 448 37,000  Level Atlanta Center
Sat 08:05:34 AM 35.5806 -81.5644 13° North 394 453 37,000  Level Atlanta Center
Sat 08:06:34 AM 35.6883 -81.5306 14° North 394 453 37,000  Level Atlanta Center
Sat 08:07:34 AM 35.7961 -81.4939 15° North 394 453 37,000  Level Atlanta Center
Sat 08:08:34 AM 35.9039 -81.4597 14° North 394 453 37,000  Level Atlanta Center
Sat 08:09:34 AM 36.0139 -81.4256 14° North 394 453 37,000  Level Atlanta Center
Sat 08:10:34 AM 36.1214 -81.3911 15° North 394 453 37,000  Level Atlanta Center
Sat 08:11:34 AM 36.2314 -81.3567 14° North 394 453 37,000  Level Atlanta Center
Sat 08:12:34 AM 36.3472 -81.3192 15° North 389 448 37,000  Level Atlanta Center
Sat 08:13:34 AM 36.4528 -81.2847 15° North 389 448 37,000  Level Atlanta Center
Sat 08:14:34 AM 36.5583 -81.2500 15° North 389 448 37,000  Level Atlanta Center
Sat 08:15:34 AM 36.6639 -81.2128 16° North 394 453 37,000  Level Atlanta Center
Sat 08:17:25 AM 36.8553 -81.1542 14° North 399 459 37,000  Level Indianapolis Center
Sat 08:18:26 AM 36.9631 -81.1200 14° North 401 461 37,000  Level Indianapolis Center
Sat 08:19:27 AM 37.0950 -81.0786 14° North 411 473 37,000  Level Indianapolis Center
Sat 08:20:28 AM 37.2044 -81.0419 15° North 412 474 37,000  Level Indianapolis Center
Sat 08:21:29 AM 37.3136 -81.0061 15° North 413 475 37,000  Level Indianapolis Center
Sat 08:22:30 AM 37.4197 -80.9964 North 398 458 37,000  Level Indianapolis Center
Sat 08:23:32 AM 37.5297 -80.9900 North 396 456 37,000  Level Indianapolis Center
Sat 08:24:33 AM 37.6661 -80.9839 North 410 472 37,000  Level Indianapolis Center
Sat 08:25:34 AM 37.7744 -80.9800 North 404 465 37,000  Level Indianapolis Center
Sat 08:26:35 AM 37.8939 -80.9436 14° North 429 494 37,000  Level Indianapolis Center
Sat 08:27:36 AM 38.0075 -80.9036 16° North 430 495 37,000  Level Indianapolis Center
Sat 08:28:37 AM 38.1214 -80.8631 16° North 429 494 37,000  Level Indianapolis Center
Sat 08:29:38 AM 38.2344 -80.8225 16° North 428 493 37,000  Level Indianapolis Center
Sat 08:30:39 AM 38.3478 -80.7817 16° North 427 491 37,000  Level Indianapolis Center
Sat 08:31:41 AM 38.4611 -80.7411 16° North 427 491 37,000  Level Indianapolis Center
Sat 08:32:42 AM 38.5753 -80.6997 16° North 427 491 37,000  Level Indianapolis Center
Sat 08:33:43 AM 38.6897 -80.6589 16° North 427 491 37,000  Level Indianapolis Center
Sat 08:34:44 AM 38.8269 -80.6083 16° North 428 493 37,000  Level Indianapolis Center
Sat 08:35:45 AM 38.9447 -80.5664 15° North 431 496 37,000  Level Indianapolis Center
Sat 08:36:46 AM 39.0586 -80.5231 16° North 432 497 37,000  Level Indianapolis Center
Sat 08:37:47 AM 39.1731 -80.4803 16° North 431 496 37,000  Level Indianapolis Center
Sat 08:38:49 AM 39.2869 -80.4386 16° North 430 495 37,000 -927 Level Indianapolis Center
Sat 08:39:50 AM 39.4008 -80.3958 16° North 429 494 35,100 -277 Descending Indianapolis Center
Sat 08:46:02 AM 40.1101 -80.1344 16° North 416 479 35,000 -15 Descending FlightAware ADS-B
Sat 08:46:34 AM 40.1683 -80.1124 16° North 417 480 35,000  Level FlightAware ADS-B
Sat 08:47:25 AM 40.2638 -80.0760 16° North 417 480 35,000  Level FlightAware ADS-B
Sat 08:48:13 AM 40.3442 -80.0456 16° North 417 480 35,000  Level FlightAware ADS-B
Sat 08:48:44 AM 40.4096 -80.0207 16° North 417 480 35,000  Level FlightAware ADS-B
Sat 08:49:42 AM 40.5165 -79.9798 16° North 416 479 35,000  Level FlightAware ADS-B
Sat 08:50:14 AM 40.5754 -79.9572 16° North 416 479 35,000  Level FlightAware ADS-B
Sat 08:50:28 AM 40.5834 -79.9542 16° North 416 479 35,000  Level FlightAware ADS-B (CYYZ)
Sat 08:50:45 AM 40.6335 -79.9351 16° North 416 479 35,000  Level FlightAware ADS-B
Sat 08:50:59 AM 40.6578 -79.9257 16° North 417 480 35,000  Level FlightAware ADS-B (CYYZ)
Sat 08:51:29 AM 40.7152 -79.9036 16° North 417 480 35,000 -92 Level FlightAware ADS-B (CYYZ)
Sat 08:52:04 AM 40.7682 -79.8832 16° North 418 481 34,900 -706 Descending FlightAware ADS-B (CYYZ)
Sat 08:52:54 AM 40.8681 -79.8445 16° North 408 470 34,000 -975 Descending FlightAware ADS-B (CYYZ)
Sat 08:53:24 AM 40.9246 -79.8228 16° North 410 472 33,600 -943 Descending FlightAware ADS-B (CYYZ)
Sat 08:54:04 AM 40.9964 -79.7950 16° North 409 471 32,900 -1,067 Descending FlightAware ADS-B (CYYZ)
Sat 08:54:09 AM 41.0056 -79.7915 16° North 408 470 32,800 -1,000 Descending FlightAware ADS-B (EPLB / LUZ)
Sat 08:54:34 AM 41.0493 -79.7744 16° North 405 466 32,400 -1,067 Descending FlightAware ADS-B (CYYZ)
Sat 08:54:54 AM 41.0864 -79.7599 16° North 401 461 32,000 -1,000 Descending FlightAware ADS-B (EPLB / LUZ)
Sat 08:55:04 AM 41.1058 -79.7524 16° North 402 463 31,900 -878 Descending FlightAware ADS-B (CYYZ)
Sat 08:55:35 AM 41.1591 -79.7317 16° North 400 460 31,400 -1,000 Descending FlightAware ADS-B (CYYZ)
Sat 08:55:52 AM 41.1573 -79.7323 16° North 399 459 31,100 -1,034 Descending FlightAware ADS-B (EPLB / LUZ)
Sat 08:56:04 AM 41.2061 -79.7132 16° North 397 457 30,900 -900 Descending FlightAware ADS-B (CYYZ)
Sat 08:56:32 AM 41.2507 -79.6956 17° North 393 452 30,500 -774 Descending FlightAware ADS-B (EPLB / LUZ)
Sat 08:56:35 AM 41.2637 -79.6904 16° North 393 452 30,500 -938 Level FlightAware ADS-B (CYYZ)
Sat 08:57:04 AM 41.3154 -79.6702 16° North 388 447 30,000 -1,017 Descending FlightAware ADS-B (CYYZ)
Sat 08:57:34 AM 41.3680 -79.6498 16° North 382 440 29,500 -900 Descending FlightAware ADS-B (CYYZ)
Sat 08:57:44 AM 41.3836 -79.6436 16° North 382 440 29,400 -800 Descending FlightAware ADS-B (EPLB / LUZ)
Sat 08:58:04 AM 41.4170 -79.6305 16° North 383 441 29,100 -1,059 Descending FlightAware ADS-B (CYYZ)
Sat 08:58:18 AM 41.4305 -79.6252 16° North 386 444 28,800 -1,200 Descending FlightAware ADS-B (EPLB / LUZ)
Sat 08:58:34 AM 41.4699 -79.6096 16° North 389 448 28,500 -1,077 Descending FlightAware ADS-B (CYYZ)
Sat 08:58:57 AM 41.5048 -79.5958 17° North 389 448 28,100 -800 Descending FlightAware ADS-B (EPLB / LUZ)
Sat 08:59:04 AM 41.5194 -79.5900 16° North 390 449 28,100 -182 Level FlightAware ADS-B (CYYZ)
Sat 08:59:30 AM 41.5659 -79.5718 16° North 392 451 28,000 -118 Descending FlightAware ADS-B (EPLB / LUZ)
Sat 08:59:55 AM 41.6084 -79.5550 16° North 395 455 28,000  Level FlightAware ADS-B (CYYZ)
Sat 09:00:10 AM 41.6309 -79.5461 17° North 391 450 28,000  Level FlightAware ADS-B (EPLB / LUZ)
Sat 09:00:24 AM 41.6599 -79.5345 16° North 391 450 28,000 -563 Level FlightAware ADS-B (CYYZ)
Sat 09:00:42 AM 41.6769 -79.5277 17° North 389 448 27,700 -968 Descending FlightAware ADS-B (EPLB / LUZ)
Sat 09:00:55 AM 41.7130 -79.5132 16° North 390 449 27,500 -882 Descending FlightAware ADS-B (CYYZ)
Sat 09:01:16 AM 41.7494 -79.4988 17° North 395 455 27,200 -1,034 Descending FlightAware ADS-B (EPLB / LUZ)
Sat 09:01:24 AM 41.7648 -79.4927 16° North 396 456 27,000 -1,579 Descending FlightAware ADS-B (CYYZ)
Sat 09:01:54 AM 41.8180 -79.4715 16° North 401 461 26,200 -1,900 Descending FlightAware ADS-B (CYYZ)
Sat 09:02:24 AM 41.8705 -79.4506 16° North 400 460 25,100 -2,200 Descending FlightAware ADS-B (CYYZ)
Sat 09:02:54 AM 41.9239 -79.4292 16° North 401 461 24,000 -2,200 Descending FlightAware ADS-B (CYYZ)
Sat 09:03:24 AM 41.9770 -79.4079 16° North 402 463 22,900 -2,262 Descending FlightAware ADS-B (CYYZ)
Sat 09:03:55 AM 42.0319 -79.3859 16° North 403 464 21,700 -2,262 Descending FlightAware ADS-B (CYYZ)
Sat 09:04:25 AM 42.0855 -79.3643 16° North 401 461 20,600 -2,200 Descending FlightAware ADS-B (CYYZ)
Sat 09:04:55 AM 42.1381 -79.3431 16° North 398 458 19,500 -2,237 Descending FlightAware ADS-B (CYYZ)
Sat 09:05:24 AM 42.1903 -79.3221 16° North 397 457 18,400 -2,323 Descending FlightAware ADS-B (CYYZ)
Sat 09:05:26 AM 42.1469 -79.3395 17° North 398 458 18,300 -2,200 Descending FlightAware ADS-B (EPLB / LUZ)
Sat 09:05:54 AM 42.2425 -79.3010 16° North 393 452 17,300 -2,250 Descending FlightAware ADS-B (CYYZ)
Sat 09:05:58 AM 42.2482 -79.2987 17° North 393 452 17,100 -2,200 Descending FlightAware ADS-B (EPLB / LUZ)
Sat 09:06:24 AM 42.2932 -79.2804 16° North 386 444 16,200 -2,077 Descending FlightAware ADS-B (CYYZ)
Sat 09:06:50 AM 42.3282 -79.2661 17° North 379 436 15,300 -2,129 Descending FlightAware ADS-B (EPLB / LUZ)
Sat 09:06:55 AM 42.3466 -79.2587 16° North 380 437 15,100 -2,229 Descending FlightAware ADS-B (CYYZ)
Sat 09:07:25 AM 42.3959 -79.2388 16° North 378 435 14,000 -2,100 Descending FlightAware ADS-B (CYYZ)
Sat 09:07:55 AM 42.4463 -79.2183 16° North 371 427 13,000 -2,053 Descending FlightAware ADS-B (CYYZ)
Sat 09:08:03 AM 42.4588 -79.2132 17° North 369 425 12,700 -2,069 Descending FlightAware ADS-B (EPLB / LUZ)
Sat 09:08:24 AM 42.4951 -79.1984 16° North 365 420 12,000 -2,000 Descending FlightAware ADS-B (CYYZ)
Sat 09:08:39 AM 42.5145 -79.1905 17° North 362 417 11,500 -2,000 Descending FlightAware ADS-B (EPLB / LUZ)
Sat 09:08:54 AM 42.5430 -79.1789 16° North 360 414 11,000 -1,600 Descending FlightAware ADS-B (CYYZ)
Sat 09:09:24 AM 42.5895 -79.1598 16° North 345 397 10,300 -1,200 Descending FlightAware ADS-B (CYYZ)
Sat 09:09:44 AM 42.6191 -79.1476 16° North 332 382 10,000 -1,029 Descending FlightAware ADS-B (CYYZ)
Sat 09:09:59 AM 42.6406 -79.1387 16° North 325 374 9,700 -1,355 Descending FlightAware ADS-B (CYYZ)
Sat 09:10:15 AM 42.6628 -79.1296 16° North 320 368 9,300 -1,400 Descending FlightAware ADS-B (CYYZ)
Sat 09:10:29 AM 42.6832 -79.1213 16° North 318 366 9,000 -1,241 Descending FlightAware ADS-B (CYYZ)
Sat 09:10:44 AM 42.7045 -79.1125 16° North 319 367 8,700 -1,200 Descending FlightAware ADS-B (CYYZ)
Sat 09:10:59 AM 42.7215 -79.1056 17° North 317 365 8,400 -1,167 Descending FlightAware ADS-B (CYYZ)
Sat 09:11:20 AM 42.7547 -79.0919 16° North 315 362 8,000 -1,200 Descending FlightAware ADS-B (CYYZ)
Sat 09:11:34 AM 42.7754 -79.0834 16° North 315 362 7,700 -1,034 Descending FlightAware ADS-B (CYYZ)
Sat 09:11:49 AM 42.7965 -79.0748 16° North 312 359 7,500 -968 Descending FlightAware ADS-B (CYYZ)
Sat 09:12:05 AM 42.8171 -79.0660 20° North 310 357 7,200 -1,200 Descending FlightAware ADS-B (CYYZ)
Sat 09:12:09 AM 42.8228 -79.0625 25° Northeast 313 360 7,100 -2,000 Descending FlightAware ADS-B (CYYZ)
Sat 09:12:14 AM 42.8292 -79.0572 35° Northeast 315 362 6,900 -1,429 Descending FlightAware ADS-B (CYYZ)
Sat 09:12:30 AM 42.8461 -79.0381 41° Northeast 310 357 6,600 -1,200 Descending FlightAware ADS-B (CYYZ)
Sat 09:12:44 AM 42.8620 -79.0188 41° Northeast 308 354 6,300 -1,448 Descending FlightAware ADS-B (CYYZ)
Sat 09:12:59 AM 42.8778 -78.9995 41° Northeast 304 350 5,900 -1,400 Descending FlightAware ADS-B (CYYZ)
Sat 09:13:14 AM 42.8935 -78.9805 41° Northeast 300 345 5,600 -1,161 Descending FlightAware ADS-B (CYYZ)
Sat 09:13:30 AM 42.9082 -78.9625 41° Northeast 293 337 5,300 -1,200 Descending FlightAware ADS-B (CYYZ)
Sat 09:13:44 AM 42.9232 -78.9442 41° Northeast 289 333 5,000 -1,034 Descending FlightAware ADS-B (CYYZ)
Sat 09:13:59 AM 42.9385 -78.9255 41° Northeast 289 333 4,800 -947 Descending FlightAware ADS-B (CYYZ)
Sat 09:14:03 AM 42.9416 -78.9218 42° Northeast 276 318 4,700 -800 Descending FlightAware ADS-B (EPLB / LUZ)
Sat 09:14:14 AM 42.9525 -78.9081 42° Northeast 272 313 4,600 -632 Descending FlightAware ADS-B (CYYZ)
Sat 09:14:22 AM 42.9591 -78.8999 43° Northeast 269 310 4,500 -800 Descending FlightAware ADS-B (EPLB / LUZ)
Sat 09:14:29 AM 42.9660 -78.8911 43° Northeast 263 303 4,400 -783 Descending FlightAware ADS-B (CYYZ)
Sat 09:14:45 AM 42.9792 -78.8743 43° Northeast 253 291 4,200 -600 Descending FlightAware ADS-B (CYYZ)
Sat 09:14:59 AM 42.9901 -78.8602 43° Northeast 246 283 4,100 -621 Descending FlightAware ADS-B (CYYZ)
Sat 09:15:14 AM 43.0035 -78.8427 43° Northeast 238 274 3,900 -774 Descending FlightAware ADS-B (CYYZ)
Sat 09:15:30 AM 43.0158 -78.8285 36° Northeast 227 261 3,700 -783 Descending FlightAware ADS-B (CYYZ)
Sat 09:15:37 AM 43.0217 -78.8227 36° Northeast 224 258 3,600 -800 Descending FlightAware ADS-B (EPLB / LUZ)
Sat 09:15:45 AM 43.0281 -78.8166 34° Northeast 213 245 3,500 -818 Descending FlightAware ADS-B (CYYZ)
Sat 09:15:59 AM 43.0402 -78.8053 34° Northeast 207 238 3,300 -414 Descending FlightAware ADS-B (CYYZ)
Sat 09:16:14 AM 43.0492 -78.7967 35° Northeast 180 207 3,300 -400 Level FlightAware ADS-B (CYYZ)
Sat 09:16:29 AM 43.0604 -78.7866 32° Northeast 170 196 3,100 -857 Descending FlightAware ADS-B (CYYZ)
Sat 09:16:35 AM 43.0643 -78.7839 23° Northeast 159 183 3,000 -1,286 Descending FlightAware ADS-B (CYYZ)
Sat 09:16:43 AM 43.0698 -78.7813 18° North 156 180 2,800 -750 Descending FlightAware ADS-B (CYYZ)
Sat 09:17:47 AM 43.1050 -78.7886 18° North 138 159 2,100 -432 Descending Cleveland Center
Sat 09:18:48 AM 43.1092 -78.8400 276° West 129 148 1,900 -390 Descending Cleveland Center
Sat 09:19:50 AM 43.1092 -78.8892 270° West 128 147 1,300 -581 Descending Cleveland Center

Login

Don't have an account? Register now (free) for customized features, flight alerts, and more!